Stations météo

Publicité
Albi, France (7632): Température de l'air & dewpoint: 14.09.2020 21:00:00 - 20.09.2020 21:00:00 (CEST)Albi, France (7632): Température de l'air 5cm: 14.09.2020 21:00:00 - 20.09.2020 21:00:00 (CEST)Albi, France (7632): Température de l'air -20cm & Température de l'air -100cm: 14.09.2020 21:00:00 - 20.09.2020 21:00:00 (CEST)Albi, France (7632): Vitesse du vent & gusts: 14.09.2020 21:00:00 - 20.09.2020 21:00:00 (CEST)Albi, France (7632): Direction du vent: 14.09.2020 21:00:00 - 20.09.2020 21:00:00 (CEST)Albi, France (7632): reduced air pressure: 14.09.2020 21:00:00 - 20.09.2020 21:00:00 (CEST)Albi, France (7632): visibility: 14.09.2020 21:00:00 - 20.09.2020 21:00:00 (CEST)Albi, France (7632): Ensoleillement: 14.09.2020 21:00:00 - 20.09.2020 21:00:00 (CEST)Albi, France (7632): Quantités de précipitations: 14.09.2020 21:00:00 - 20.09.2020 21:00:00 (CEST)
Date & Time tt [°C] td [°C] tt 5cm [°C] tt -20cm [°C] tt -100cm [°C] ff [km/h] ff [knt] fx [km/h] fx [knt] dd ppp [hPa] vv [km] sd [min] rr [mm]
20.09.2020 21:00:00 21,1 15,2 20,2 22,5 21,6 3 2 10 5 NE 1015,5 20 0 0,0
20.09.2020 20:00:00 21,7 14,6 21,2 22,4 21,6 6 3 14 7 NNE 1014,7 20 22 0,0
20.09.2020 19:00:00 22,7 14,3 24,2 22,3 21,6 7 4 20 11 NNE 1014,1 20 38 0,0
20.09.2020 18:00:00 23,7 14,9 25,5 22,3 21,6 13 7 24 13 NW 1013,8 20 17 0,0
20.09.2020 17:00:00 23,8 13,6 25,0 22,2 21,5 3 1 18 10 WNW 1013,8 20 24 0,0
20.09.2020 16:00:00 23,8 14,2 26,2 22,2 21,6 4 2 11 6 SSW 1014,2 19 6 0,0
20.09.2020 15:00:00 23,2 14,5 26,1 22,1 21,5 3 2 12 7 WNW 1014,7 20 1 0,0
20.09.2020 14:00:00 22,5 14,9 25,1 22,2 21,6 6 4 17 9 SW 1015,4 20 6 0,0
20.09.2020 13:00:00 21,8 15,6 23,2 22,2 21,6 7 4 15 8 SW 1015,7 20 13 0,0
20.09.2020 12:00:00 20,6 15,8 22,7 22,2 21,6 3 2 8 5 S 1016,0 20 0 0,0
20.09.2020 11:00:00 19,9 16,7 19,9 22,3 21,6 4 2 11 6 ESE 1016,0 20 32 0,0
20.09.2020 10:00:00 18,3 17,1 17,6 22,3 21,6 8 4 14 7 ESE 1016,0 20 27 0,0
20.09.2020 09:00:00 16,7 16,4 16,0 22,4 21,5 4 2 6 3 ESE 1015,8 20 0 0,0
20.09.2020 08:00:00 16,1 15,9 15,0 22,4 21,6 0 0 4 2 N 1015,4 20 0 0,0
20.09.2020 07:00:00 16,3 15,8 15,4 22,5 21,6 0 0 11 6 N 1015,1 20 0 0,0
20.09.2020 06:00:00 16,9 16,4 16,5 22,6 21,6 6 3 12 7 SW 1014,9 20 0 0,0
20.09.2020 05:00:00 17,4 17,2 17,2 22,6 21,5 4 2 12 7 W 1015,0 19 0 0,0
20.09.2020 04:00:00 17,3 17,0 16,6 22,7 21,6 8 4 11 6 ENE 1014,8 16 0 1,0
20.09.2020 03:00:00 17,0 16,5 16,6 22,8 21,5 2 1 8 4 SSW 1015,3 2,5 0 6,8
20.09.2020 02:00:00 17,5 17,2 17,2 22,9 21,6 3 1 18 10 W 1014,6 20 0 0,2
20.09.2020 01:00:00 17,8 17,3 17,2 22,9 21,5 7 4 14 8 NNE 1014,3 20 0 0,4
20.09.2020 00:00:00 17,4 17,1 17,2 23,0 21,5 0 0 14 8 N 1013,7 5 0 0,2
19.09.2020 23:00:00 17,4 17,1 17,0 23,0 21,6 4 2 22 12 SW 1013,1 20 0 1,0
19.09.2020 22:00:00 18,1 17,8 17,7 23,0 21,5 9 5 25 14 WNW 1012,6 19 0 1,0
19.09.2020 21:00:00 18,2 18,0 17,1 23,0 21,5 7 4 24 13 NNE 1011,8 20 0 0,2
19.09.2020 20:00:00 17,3 17,0 15,2 22,8 21,5 18 10 111 60 E 1011,4 14 8 11,2
19.09.2020 19:00:00 18,4 16,7 17,6 23,0 21,5 34 19 66 35 E 1010,6 1,2 7 17,5
19.09.2020 18:00:00 24,0 14,4 22,2 22,9 21,5 21 11 45 24 ESE 1009,6 20 9 0,0
19.09.2020 17:00:00 22,1 14,0 20,9 22,7 21,5 24 13 42 23 NW 1009,4 20 0 0,0
19.09.2020 16:00:00 29,7 12,6 31,5 22,7 21,5 10 6 25 14 SSE 1009,2 20 14 0,0
19.09.2020 15:00:00 29,3 15,1 33,4 22,6 21,5 6 3 17 9 NNE 1009,7 20 50 0,0
19.09.2020 14:00:00 28,4 15,3 31,7 22,6 21,5 8 5 18 10 SSE 1010,7 19 56 0,0
19.09.2020 13:00:00 25,6 14,7 26,1 22,6 21,5 5 3 14 8 N 1011,7 20 20 0,0
19.09.2020 12:00:00 23,6 15,1 23,1 22,7 21,5 9 5 23 12 SW 1013,1 19 4 0,0
19.09.2020 11:00:00 23,1 16,6 20,7 22,7 21,5 19 10 31 17 SW 1013,3 20 0 0,0
19.09.2020 10:00:00 25,0 15,6 25,6 22,8 21,5 6 3 16 9 E 1012,0 20 44 0,0
19.09.2020 09:00:00 22,6 16,2 17,6 22,8 21,5 7 4 14 7 E 1011,5 20 40 0,0
19.09.2020 08:00:00 18,5 15,2 17,3 22,9 21,5 5 3 10 5 E 1012,2 20 0 0,0
19.09.2020 07:00:00 19,1 15,4 17,5 22,9 21,5 8 4 11 6 ENE 1012,4 20 0 0,0
19.09.2020 06:00:00 18,8 15,3 17,0 23,0 21,5 4 2 6 4 E 1012,3 20 0 0,0
19.09.2020 05:00:00 20,7 15,0 18,8 23,0 21,5 2 1 11 6 W 1012,5 20 0 0,0
19.09.2020 04:00:00 22,4 15,7 21,0 23,0 21,5 9 5 18 10 E 1012,1 20 0 0,0
19.09.2020 03:00:00 22,8 15,1 20,7 23,0 21,5 13 7 19 11 E 1012,8 20 0 0,0
19.09.2020 02:00:00 23,1 13,8 21,9 23,0 21,5 2 1 9 5 SSE 1012,9 20 0 0,0
19.09.2020 01:00:00 24,1 12,4 22,9 23,0 21,5 3 2 21 11 SSE 1012,9 20 0 0,0
19.09.2020 00:00:00 24,7 12,9 24,2 23,0 21,5 10 5 35 19 E 1012,4 20 0 0,0
18.09.2020 23:00:00 24,8 13,4 24,6 23,0 21,5 16 9 44 24 E 1012,7 20 0 0,0
18.09.2020 22:00:00 25,0 13,5 24,2 23,0 21,5 24 13 45 24 E 1012,8 20 0 0,0
18.09.2020 21:00:00 25,0 12,9 24,5 23,0 21,5 18 10 36 19 E 1012,4 20 0 0,0
18.09.2020 20:00:00 25,7 12,2 25,3 23,0 21,5 20 11 45 24 E 1012,0 20 0 0,0
18.09.2020 19:00:00 26,3 13,1 26,4 23,0 21,5 23 12 41 22 E 1012,2 20 0 0,0
18.09.2020 18:00:00 26,7 13,4 26,9 22,9 21,5 26 14 50 27 E 1012,6 20 0 0,0
18.09.2020 17:00:00 27,0 14,1 27,4 22,9 21,4 29 16 50 27 ESE 1012,8 20 0 0,0
18.09.2020 16:00:00 28,7 12,6 29,3 22,9 21,4 29 15 56 30 SE 1012,8 20 0 0,0
18.09.2020 15:00:00 30,0 12,4 31,7 22,9 21,5 27 14 50 27 SE 1012,7 20 0 0,0
18.09.2020 14:00:00 30,4 12,8 32,4 22,9 21,4 26 14 50 27 SE 1012,4 20 44 0,0
18.09.2020 13:00:00 31,9 13,6 32,4 22,8 21,4 25 14 54 29 ESE 1012,4 20 54 0,0
18.09.2020 12:00:00 30,6 12,0 33,4 22,9 21,4 27 14 48 26 ESE 1012,7 20 60 0,0
18.09.2020 11:00:00 29,5 12,4 29,2 22,9 21,4 26 14 46 25 ESE 1012,7 20 60 0,0
18.09.2020 10:00:00 25,3 15,9 24,4 22,9 21,4 13 7 23 12 ENE 1012,9 20 60 0,0
18.09.2020 09:00:00 22,9 15,2 21,4 23,0 21,4 9 5 18 10 NE 1013,1 20 25 0,0
18.09.2020 08:00:00 21,3 14,7 20,0 23,0 21,4 8 4 21 11 E 1012,9 20 5 0,0
18.09.2020 07:00:00 21,5 14,6 19,8 23,1 21,4 14 8 27 15 ENE 1012,5 20 0 0,0
18.09.2020 06:00:00 21,9 14,0 21,2 23,1 21,4 14 8 27 15 ENE 1012,6 20 0 0,0
18.09.2020 05:00:00 22,3 13,1 21,0 23,2 21,4 13 7 26 14 NE 1012,4 20 0 0,0
18.09.2020 04:00:00 22,5 12,4 21,1 23,3 21,4 14 7 25 14 ENE 1012,5 20 0 0,0
18.09.2020 03:00:00 22,3 12,0 20,1 23,3 21,4 11 6 22 12 E 1013,2 20 0 0,0
18.09.2020 02:00:00 21,4 12,0 17,9 23,3 21,4 10 5 16 9 ENE 1013,4 20 0 0,0
18.09.2020 01:00:00 19,9 11,1 17,0 23,3 21,4 6 3 8 4 E 1013,8 20 0 0,0
18.09.2020 00:00:00 20,3 10,7 18,0 23,3 21,4 2 1 9 5 E 1013,7 20 0 0,0
17.09.2020 23:00:00 22,5 10,6 20,1 23,2 21,4 6 3 9 5 E 1013,7 20 0 0,0
17.09.2020 22:00:00 24,9 10,0 22,4 23,2 21,4 5 3 16 8 E 1013,5 20 0 0,0
17.09.2020 21:00:00 27,6 9,9 26,9 23,1 21,4 13 7 26 14 SE 1013,1 20 0 0,0
17.09.2020 20:00:00 29,5 10,6 29,0 23,0 21,4 14 8 29 16 SE 1012,3 20 25 0,0
17.09.2020 19:00:00 32,2 11,4 33,5 22,8 21,4 16 8 30 16 SE 1011,5 20 52 0,0
17.09.2020 18:00:00 33,4 10,1 35,6 22,7 21,4 7 4 21 11 S 1011,5 20 49 0,0
17.09.2020 17:00:00 34,3 10,8 39,2 22,6 21,4 6 4 18 10 SW 1011,7 20 60 0,0
17.09.2020 16:00:00 33,6 8,9 40,1 22,5 21,4 9 5 21 12 NE 1012,4 20 60 0,0
17.09.2020 15:00:00 32,9 11,4 39,1 22,4 21,4 9 5 25 14 NNE 1013,0 20 60 0,0
17.09.2020 14:00:00 32,6 11,7 39,3 22,5 21,4 7 4 14 8 S 1013,7 20 60 0,0
17.09.2020 13:00:00 31,6 12,9 37,2 22,5 21,3 6 3 11 6 N 1014,4 20 60 0,0
17.09.2020 12:00:00 29,7 13,0 33,1 22,5 21,4 3 2 11 6 NNE 1015,2 20 60 0,0
17.09.2020 11:00:00 26,6 13,7 27,5 22,6 21,3 5 3 15 8 ENE 1015,8 20 60 0,0
17.09.2020 10:00:00 22,6 13,1 22,6 22,7 21,4 9 5 18 10 NE 1016,2 20 60 0,0
17.09.2020 09:00:00 20,0 13,5 17,7 22,7 21,4 10 5 16 9 E 1016,5 20 60 0,0
17.09.2020 08:00:00 17,5 13,4 16,2 22,9 21,4 4 2 10 5 NE 1017,0 20 6 0,0
17.09.2020 07:00:00 18,1 13,6 15,4 22,9 21,3 9 5 13 7 ENE 1016,8 20 0 0,0
17.09.2020 06:00:00 16,5 12,8 15,4 23,0 21,3 5 3 10 6 NE 1016,7 20 0 0,0
17.09.2020 05:00:00 17,1 13,8 15,8 23,0 21,3 7 4 10 6 ENE 1016,8 20 0 0,0
17.09.2020 04:00:00 17,4 13,3 15,9 23,1 21,3 5 3 9 5 ENE 1017,1 20 0 0,0
17.09.2020 03:00:00 18,2 13,7 17,0 23,1 21,3 6 3 11 6 ENE 1017,5 20 0 0,0
17.09.2020 02:00:00 18,6 13,9 17,7 23,1 21,3 7 4 9 5 E 1017,6 20 0 0,0
17.09.2020 01:00:00 19,8 13,9 17,9 23,1 21,3 4 2 6 3 NNE 1017,7 20 0 0,0
17.09.2020 00:00:00 20,6 13,8 18,3 23,1 21,3 3 1 10 5 SE 1018,0 20 0 0,0
16.09.2020 23:00:00 22,0 13,6 20,0 23,1 21,3 8 5 10 6 E 1017,6 20 0 0,0
16.09.2020 22:00:00 24,1 13,0 21,7 23,0 21,3 6 3 13 7 ENE 1017,3 20 0 0,0
16.09.2020 21:00:00 25,3 12,2 22,6 22,9 21,3 0 0 8 4 N 1016,8 20 0 0,0
16.09.2020 20:00:00 28,9 11,9 27,7 22,8 21,3 6 4 19 10 NNE 1016,1 20 37 0,0
16.09.2020 19:00:00 31,0 11,9 31,7 22,6 21,3 9 5 25 13 WNW 1015,5 20 47 0,0
16.09.2020 18:00:00 31,3 11,7 31,9 22,5 21,3 15 8 30 16 NW 1015,4 20 33 0,0
16.09.2020 17:00:00 33,7 10,9 37,3 22,3 21,3 6 4 22 12 W 1015,3 20 60 0,0
16.09.2020 16:00:00 32,6 11,7 37,0 22,3 21,3 11 6 21 11 NW 1016,0 20 60 0,0
16.09.2020 15:00:00 32,3 14,0 37,4 22,2 21,3 6 3 21 12 WSW 1016,8 20 57 0,0
16.09.2020 14:00:00 31,3 14,9 35,8 22,2 21,3 7 4 17 9 W 1017,8 20 60 0,0
16.09.2020 13:00:00 29,3 14,7 34,4 22,3 21,3 4 2 15 8 W 1018,7 20 60 0,0
16.09.2020 12:00:00 27,5 14,5 32,9 22,3 21,3 3 2 7 4 WNW 1019,3 20 60 0,0
16.09.2020 11:00:00 25,1 13,6 28,2 22,4 21,3 2 1 8 4 NNE 1019,9 20 60 0,0
16.09.2020 10:00:00 21,5 13,1 22,0 22,4 21,3 4 2 10 6 ENE 1020,5 20 60 0,0
16.09.2020 09:00:00 19,3 13,0 17,2 22,5 21,3 6 3 9 5 ENE 1020,5 20 57 0,0
16.09.2020 08:00:00 16,6 12,7 15,4 22,6 21,3 5 3 8 4 E 1020,4 20 7 0,0
16.09.2020 07:00:00 16,4 12,4 15,7 22,6 21,3 6 4 10 5 E 1020,1 20 0 0,0
16.09.2020 06:00:00 16,9 12,6 15,7 22,7 21,2 4 2 6 3 E 1020,0 20 0 0,0
16.09.2020 05:00:00 17,3 12,8 16,1 22,7 21,3 3 2 8 4 ESE 1019,9 20 0 0,0
16.09.2020 04:00:00 18,2 13,1 17,1 22,7 21,3 3 2 6 3 E 1020,0 20 0 0,0
16.09.2020 03:00:00 18,8 13,2 17,4 22,7 21,2 4 2 5 3 ESE 1020,1 20 0 0,0
16.09.2020 02:00:00 19,8 13,3 18,2 22,7 21,2 4 2 5 3 E 1020,1 20 0 0,0
16.09.2020 01:00:00 21,1 13,8 19,7 22,7 21,2 2 1 6 3 ENE 1020,0 20 0 0,0
16.09.2020 00:00:00 22,5 14,1 21,0 22,7 21,3 4 2 6 3 E 1019,9 20 0 0,0
15.09.2020 23:00:00 25,5 14,9 23,8 22,6 21,2 4 2 16 9 ENE 1019,7 20 0 0,0
15.09.2020 22:00:00 26,5 15,2 23,8 22,6 21,3 9 5 22 12 S 1019,3 20 0 0,0
15.09.2020 21:00:00 25,1 13,6 22,6 22,5 21,2 4 2 12 6 SSE 1018,8 20 0 0,0
15.09.2020 20:00:00 28,1 13,2 26,0 22,3 21,2 4 2 15 8 SSW 1018,0 20 23 0,0
15.09.2020 19:00:00 30,6 12,9 31,9 22,2 21,2 9 5 19 10 W 1017,5 20 53 0,0
15.09.2020 18:00:00 31,8 12,6 35,1 22,0 21,2 4 2 16 8 WSW 1017,4 20 51 0,0
15.09.2020 17:00:00 31,9 12,2 37,6 21,9 21,2 3 1 22 12 NNW 1017,6 20 60 0,0
15.09.2020 16:00:00 31,6 12,4 37,5 21,8 21,2 5 3 16 9 ESE 1018,2 20 60 0,0
15.09.2020 15:00:00 30,6 12,0 36,3 21,8 21,2 9 5 19 10 SW 1019,0 20 60 0,0
15.09.2020 14:00:00 29,7 13,9 35,9 21,7 21,2 8 5 26 14 SSE 1019,6 20 60 0,0
15.09.2020 13:00:00 28,4 12,7 32,0 21,8 21,2 10 5 18 10 ESE 1020,6 20 60 0,0
15.09.2020 12:00:00 26,3 13,8 30,0 21,8 21,2 10 5 19 11 WSW 1021,7 20 60 0,0
15.09.2020 11:00:00 25,0 13,2 27,9 21,9 21,2 10 6 20 11 WSW 1021,7 20 60 0,0
15.09.2020 10:00:00 23,7 13,8 26,0 21,9 21,2 8 5 12 6 W 1021,1 20 60 0,0
15.09.2020 09:00:00 21,5 13,1 18,5 22,0 21,2 0 0 11 6 N 1020,8 20 58 0,0
15.09.2020 08:00:00 17,9 13,4 14,8 22,1 21,2 6 4 9 5 ENE 1020,6 20 8 0,0
15.09.2020 07:00:00 17,8 12,7 15,7 22,1 21,2 0 0 10 6 N 1020,0 20 0 0,0
15.09.2020 06:00:00 19,3 12,8 17,3 22,2 21,2 8 4 16 8 ENE 1019,4 20 0 0,0
15.09.2020 05:00:00 20,2 13,4 17,7 22,2 21,2 8 5 14 8 ENE 1019,4 20 0 0,0
15.09.2020 04:00:00 20,3 13,3 17,5 22,3 21,2 5 3 15 8 E 1019,3 20 0 0,0
15.09.2020 03:00:00 19,7 12,9 17,0 22,3 21,2 4 2 10 5 E 1019,6 20 0 0,0
15.09.2020 02:00:00 19,7 12,5 17,0 22,3 21,2 7 4 10 5 E 1019,9 20 0 0,0
15.09.2020 01:00:00 20,0 12,0 16,8 22,3 21,2 4 2 9 5 NE 1020,2 20 0 0,0
15.09.2020 00:00:00 20,5 11,9 18,1 22,3 21,2 8 4 10 6 E 1020,2 20 0 0,0
14.09.2020 23:00:00 20,6 11,8 18,1 22,3 21,2 5 3 8 4 ENE 1020,3 20 0 0,0
14.09.2020 22:00:00 22,5 10,9 19,3 22,3 21,2 3 1 12 7 E 1020,3 20 0 0,0
14.09.2020 21:00:00 25,1 10,5 22,6 22,2 21,2 7 4 23 12 E 1019,5 20 0 0,0

tt = Température de l'air
td = dewpoint
tt 5cm = Température de l'air 5cm
tt -20cm = Température de l'air -20cm
tt -100cm = Température de l'air -100cm
ff = Vitesse du vent
fx = gusts
dd = Direction du vent
ppp = reduced air pressure
vv = visibility
sd = Ensoleillement
rr = Quantités de précipitations

stations d'obs. à proximité